South Haven, MI

12:46 AM EST on December 18, 2017 (GMT -0500)
South Haven

Weather History for KLWA - February, 2013

Change the Weather History Date:

Saturday, February 16, 2013

  Actual Average (KBEH) Record (KBEH)
Temperature  
Mean Temperature 20 °F -  
Max Temperature 24 °F 34 °F 64 °F (1954)
Min Temperature 17 °F 19 °F -5 °F (2004)
Degree Days  
Heating Degree Days 44    
Moisture  
Dew Point 12 °F    
Average Humidity 69    
Maximum Humidity 89    
Minimum Humidity 53    
Precipitation  
Precipitation 0.00 in - - ()
Sea Level Pressure  
Sea Level Pressure 30.08 in    
Wind  
Wind Speed 7 mph (NW)    
Max Wind Speed 15 mph    
Max Gust Speed 25 mph    
Visibility 7 miles    
Events Snow    
Averages and records for this station are not official NWS values.
T = Trace of Precipitation, MM = Missing Value Source: NWS Daily Summary

Daily Weather History Graph

Daily Weather History Graph

Search for Another Location

Airport or City:

Trip Planner

Search our weather history database for the weather conditions in past years. The results will help you decide how hot, cold, wet, or windy it might be!

Date:

Astronomy

Feb. 16, 2013 Rise Set
Actual Time 7:39 AM EST 6:19 PM EST
Civil Twilight 7:11 AM EST 6:47 PM EST
Nautical Twilight 6:38 AM EST 7:20 PM EST
Astronomical Twilight 6:05 AM EST 7:53 PM EST
Moon 10:43 AM EST (2/16) 12:26 AM EST (2/16)
Length of Visible Light 11h 36m
Length of Day
10h 39m
Waxing Crescent, 39% of the Moon is Illuminated
Feb 16
Waxing Crescent
Feb 17
First Quarter
Feb 25
Full
Mar 4
Last Quarter
Mar 11
New

Hourly Weather History & Observations

Time (EST) Temp. Windchill Dew Point Humidity Pressure Visibility Wind Dir Wind Speed Gust Speed Precip Events Conditions
12:15 AM 24.3 °F - 19.4 °F 82% 30.10 in 7.0 mi Calm Calm - N/A Snow Light Snow
12:34 AM 23.9 °F - 19.6 °F 84% 30.10 in 5.0 mi Calm Calm - N/A Snow Light Snow
12:55 AM 23.7 °F - 20.1 °F 86% 30.09 in 7.0 mi Calm Calm - N/A Snow Light Snow
1:14 AM 23.7 °F - 20.3 °F 87% 30.09 in 10.0 mi Calm Calm - N/A   Overcast
1:35 AM 23.5 °F - 20.3 °F 87% 30.09 in 10.0 mi Calm Calm - N/A   Overcast
1:55 AM 23.5 °F - 19.0 °F 83% 30.08 in 10.0 mi Calm Calm - N/A   Overcast
2:14 AM 24.6 °F 15.1 °F 16.9 °F 72% 30.08 in 4.0 mi NNW 9.2 mph - N/A Snow Light Snow
2:35 AM 24.1 °F 15.2 °F 18.3 °F 79% 30.08 in 10.0 mi North 8.1 mph 16.1 mph N/A   Overcast
2:54 AM 23.7 °F 14.7 °F 18.3 °F 80% 30.08 in 7.0 mi NNW 8.1 mph 16.1 mph N/A Snow Light Snow
3:15 AM 23.7 °F 12.6 °F 16.3 °F 73% 30.07 in 10.0 mi NW 11.5 mph 19.6 mph N/A   Overcast
3:35 AM 23.7 °F 15.6 °F 14.5 °F 68% 30.07 in 10.0 mi NNW 6.9 mph - N/A Snow Light Snow
3:54 AM 23.7 °F 15.6 °F 13.6 °F 65% 30.06 in 10.0 mi NW 6.9 mph - N/A   Overcast
4:15 AM 23.7 °F 15.6 °F 12.7 °F 63% 30.06 in 10.0 mi WNW 6.9 mph - N/A   Overcast
4:34 AM 23.7 °F 15.6 °F 12.6 °F 62% 30.06 in 10.0 mi WNW 6.9 mph - N/A   Overcast
4:55 AM 23.5 °F 12.4 °F 11.1 °F 59% 30.05 in 10.0 mi NW 11.5 mph 18.4 mph N/A   Overcast
5:15 AM 23.0 °F 12.4 °F 9.7 °F 57% 30.05 in 10.0 mi NW 10.4 mph - N/A   Overcast
5:35 AM 22.5 °F 12.4 °F 14.9 °F 73% 30.06 in 4.0 mi NW 9.2 mph - N/A Snow Light Snow
5:55 AM 22.6 °F 16.5 °F 13.1 °F 67% 30.05 in 10.0 mi West 4.6 mph - N/A   Overcast
6:15 AM 23.0 °F 13.9 °F 11.3 °F 61% 30.05 in 10.0 mi West 8.1 mph - N/A   Overcast
6:35 AM 23.0 °F 14.7 °F 9.1 °F 55% 30.05 in 10.0 mi WNW 6.9 mph - N/A   Overcast
6:55 AM 22.3 °F 11.5 °F 17.8 °F 83% 30.05 in 3.0 mi NNW 10.4 mph - N/A Snow Light Snow
7:15 AM 21.0 °F 10.6 °F 18.1 °F 89% 30.05 in 0.5 mi NNW 9.2 mph 18.4 mph N/A Snow Snow
7:34 AM 21.2 °F 10.9 °F 16.7 °F 83% 30.05 in 1.8 mi NW 9.2 mph - N/A Snow Light Snow
7:55 AM 21.6 °F 9.3 °F 14.0 °F 73% 30.05 in 5.0 mi NW 12.7 mph 18.4 mph N/A Snow Light Snow
8:15 AM 21.2 °F 8.3 °F 13.8 °F 73% 30.06 in 3.0 mi NNW 13.8 mph 17.3 mph N/A Snow Light Snow
8:34 AM 20.8 °F 7.3 °F 13.1 °F 72% 30.06 in 3.0 mi NW 15.0 mph 23.0 mph N/A Snow Light Snow
8:55 AM 20.5 °F 8.0 °F 12.0 °F 70% 30.07 in 7.0 mi NW 12.7 mph 17.3 mph N/A Snow Light Snow
9:14 AM 20.1 °F 6.9 °F 12.7 °F 73% 30.07 in 4.0 mi NNW 13.8 mph 20.7 mph N/A Snow Light Snow
9:35 AM 19.9 °F 9.3 °F 11.3 °F 69% 30.07 in 7.0 mi NW 9.2 mph 25.3 mph N/A   Overcast
9:54 AM 19.9 °F 6.2 °F 9.7 °F 64% 30.07 in 10.0 mi WNW 15.0 mph 20.7 mph N/A   Overcast
10:15 AM 19.2 °F 5.3 °F 8.2 °F 62% 30.08 in 7.0 mi NW 15.0 mph 25.3 mph N/A   Overcast
10:35 AM 19.4 °F 6.0 °F 7.5 °F 60% 30.08 in 10.0 mi NW 13.8 mph 21.9 mph N/A   Overcast
10:54 AM 19.4 °F 6.6 °F 8.2 °F 62% 30.08 in 10.0 mi NW 12.7 mph 23.0 mph N/A   Overcast
11:15 AM 19.4 °F 7.2 °F 6.1 °F 56% 30.08 in 10.0 mi WNW 11.5 mph 18.4 mph N/A   Overcast
11:34 AM 19.6 °F 8.1 °F 5.9 °F 55% 30.09 in 10.0 mi WNW 10.4 mph 20.7 mph N/A   Overcast
11:55 AM 19.4 °F 6.0 °F 7.0 °F 59% 30.09 in 10.0 mi WNW 13.8 mph 21.9 mph N/A   Overcast
12:15 PM 19.4 °F 6.6 °F 4.8 °F 53% 30.08 in 10.0 mi WNW 12.7 mph 20.7 mph N/A   Overcast
12:34 PM 19.8 °F 9.1 °F 6.8 °F 57% 30.08 in 10.0 mi WNW 9.2 mph 17.3 mph N/A   Overcast
12:55 PM 19.2 °F 7.7 °F 7.9 °F 61% 30.07 in 7.0 mi NW 10.4 mph 18.4 mph N/A   Overcast
1:14 PM 18.9 °F 6.5 °F 9.3 °F 66% 30.07 in 2.5 mi WNW 11.5 mph 19.6 mph N/A Snow Light Snow
1:35 PM 19.4 °F 6.6 °F 7.5 °F 60% 30.07 in 10.0 mi NW 12.7 mph 21.9 mph N/A   Overcast
1:55 PM 19.2 °F 5.3 °F 6.8 °F 59% 30.07 in 10.0 mi WNW 15.0 mph 21.9 mph N/A   Overcast
2:14 PM 19.0 °F 7.5 °F 8.4 °F 63% 30.07 in 7.0 mi NW 10.4 mph 21.9 mph N/A   Overcast
2:35 PM 18.9 °F 5.9 °F 7.2 °F 60% 30.07 in 5.0 mi NW 12.7 mph 18.4 mph N/A Snow Light Snow
2:55 PM 19.4 °F 7.9 °F 7.9 °F 61% 30.06 in 10.0 mi WNW 10.4 mph 17.3 mph N/A   Overcast
3:14 PM 19.0 °F 6.8 °F 9.9 °F 67% 30.07 in 5.0 mi WNW 11.5 mph 17.3 mph N/A Snow Light Snow
3:35 PM 19.4 °F 7.9 °F 8.2 °F 62% 30.07 in 7.0 mi West 10.4 mph 20.7 mph N/A   Overcast
3:54 PM 19.4 °F 6.6 °F 8.4 °F 62% 30.07 in 10.0 mi WNW 12.7 mph - N/A   Overcast
4:15 PM 19.2 °F 8.4 °F 8.4 °F 63% 30.07 in 7.0 mi NW 9.2 mph 18.4 mph N/A   Overcast
4:34 PM 19.2 °F 6.4 °F 10.2 °F 68% 30.07 in 4.0 mi WNW 12.7 mph 16.1 mph N/A Snow Light Snow
4:55 PM 19.4 °F 7.9 °F 9.5 °F 65% 30.07 in 10.0 mi West 10.4 mph 19.6 mph N/A   Overcast
5:15 PM 19.4 °F 9.5 °F 9.5 °F 65% 30.07 in 10.0 mi WNW 8.1 mph - N/A   Overcast
5:34 PM 19.4 °F 9.5 °F 9.9 °F 66% 30.07 in 7.0 mi WNW 8.1 mph - N/A Snow Light Snow
5:55 PM 18.5 °F 9.3 °F 13.8 °F 82% 30.08 in 2.5 mi West 6.9 mph - N/A Snow Light Snow
6:14 PM 19.4 °F 8.6 °F 12.4 °F 74% 30.08 in 2.5 mi NW 9.2 mph - N/A Snow Light Snow
6:35 PM 18.5 °F 8.4 °F 12.2 °F 76% 30.09 in 5.0 mi WNW 8.1 mph - N/A Snow Light Snow
6:55 PM 19.8 °F 10.8 °F 10.0 °F 66% 30.09 in 10.0 mi WNW 6.9 mph - N/A   Overcast
7:15 PM 19.9 °F 13.4 °F 7.2 °F 58% 30.09 in 10.0 mi WNW 4.6 mph - N/A   Overcast
7:35 PM 20.1 °F 12.3 °F 6.6 °F 56% 30.09 in 10.0 mi NW 5.8 mph - N/A   Overcast
7:55 PM 20.3 °F 9.8 °F 9.7 °F 64% 30.10 in 10.0 mi NNW 9.2 mph 18.4 mph N/A   Overcast
8:15 PM 20.3 °F 11.5 °F 10.6 °F 66% 30.09 in 5.0 mi WNW 6.9 mph - N/A Snow Light Snow
8:34 PM 20.3 °F 9.8 °F 13.5 °F 75% 30.09 in 7.0 mi NW 9.2 mph - N/A Snow Light Snow
8:55 PM 20.3 °F 10.6 °F 14.2 °F 77% 30.09 in 4.0 mi NW 8.1 mph - N/A Snow Light Snow
9:15 PM 20.1 °F 10.3 °F 13.1 °F 74% 30.09 in 10.0 mi NW 8.1 mph - N/A   Overcast
9:35 PM 20.8 °F 12.1 °F 12.2 °F 69% 30.09 in 10.0 mi NW 6.9 mph 18.4 mph N/A   Overcast
9:55 PM 21.2 °F 13.6 °F 10.4 °F 63% 30.09 in 10.0 mi NW 5.8 mph - N/A   Overcast
10:14 PM 21.2 °F 12.6 °F 11.1 °F 65% 30.10 in 10.0 mi North 6.9 mph - N/A   Overcast
10:35 PM 20.8 °F 11.2 °F 13.1 °F 72% 30.10 in 4.0 mi North 8.1 mph - N/A Snow Light Snow
10:54 PM 19.8 °F 9.1 °F 16.7 °F 88% 30.10 in 1.0 mi North 9.2 mph - N/A Snow Snow
11:15 PM 18.1 °F 8.9 °F 14.9 °F 87% 30.11 in 0.8 mi North 6.9 mph 16.1 mph N/A Snow Snow
11:34 PM 17.6 °F 10.7 °F 14.9 °F 89% 30.11 in 1.2 mi North 4.6 mph - N/A Snow Snow
11:55 PM 17.6 °F 9.3 °F 14.2 °F 86% 30.11 in 2.5 mi NNE 5.8 mph - N/A Snow Light Snow